Year,Month,Day,Hour,Minute,Value (Times are PST for temperature in C)
2007,01,12,00,00,-7.20
2007,01,12,00,01,-7.20
2007,01,12,00,02,-7.20
2007,01,12,00,03,-7.30
2007,01,12,00,04,-7.30
2007,01,12,00,05,-7.30
2007,01,12,00,06,-7.40
2007,01,12,00,07,-7.40
2007,01,12,00,08,-7.40
2007,01,12,00,09,-7.40
2007,01,12,00,10,-7.40
2007,01,12,00,11,-7.40
2007,01,12,00,12,-7.30
2007,01,12,00,13,-7.30
2007,01,12,00,14,-7.40
2007,01,12,00,15,-7.30
2007,01,12,00,16,-7.40
2007,01,12,00,17,-7.40
2007,01,12,00,18,-7.40
2007,01,12,00,19,-7.40
2007,01,12,00,20,-7.40
2007,01,12,00,21,-7.50
2007,01,12,00,22,-7.50
2007,01,12,00,23,-7.50
2007,01,12,00,24,-7.50
2007,01,12,00,25,-7.50
2007,01,12,00,26,-7.50
2007,01,12,00,27,-7.60
2007,01,12,00,28,-7.60
2007,01,12,00,29,-7.60
2007,01,12,00,30,-7.60
2007,01,12,00,31,-7.60
2007,01,12,00,32,-7.60
2007,01,12,00,33,-7.60
2007,01,12,00,34,-7.60
2007,01,12,00,35,-7.60
2007,01,12,00,36,-7.60
2007,01,12,00,37,-7.60
2007,01,12,00,38,-7.60
2007,01,12,00,39,-7.60
2007,01,12,00,40,-7.50
2007,01,12,00,41,-7.50
2007,01,12,00,42,-7.50
2007,01,12,00,43,-7.50
2007,01,12,00,44,-7.40
2007,01,12,00,45,-7.30
2007,01,12,00,46,-7.30
2007,01,12,00,47,-7.30
2007,01,12,00,48,-7.30
2007,01,12,00,49,-7.40
2007,01,12,00,50,-7.40
2007,01,12,00,51,-7.40
2007,01,12,00,52,-7.40
2007,01,12,00,53,-7.50
2007,01,12,00,54,-7.50
2007,01,12,00,55,-7.60
2007,01,12,00,56,-7.60
2007,01,12,00,57,-7.60
2007,01,12,00,58,-7.60
2007,01,12,00,59,-7.60
2007,01,12,01,00,-7.60
2007,01,12,01,01,-7.60
2007,01,12,01,02,-7.60
2007,01,12,01,03,-7.60
2007,01,12,01,04,-7.60
2007,01,12,01,05,-7.60
2007,01,12,01,06,-7.60
2007,01,12,01,07,-7.60
2007,01,12,01,08,-7.60
2007,01,12,01,09,-7.60
2007,01,12,01,10,-7.60
2007,01,12,01,11,-7.60
2007,01,12,01,12,-7.60
2007,01,12,01,13,-7.60
2007,01,12,01,14,-7.60
2007,01,12,01,15,-7.60
2007,01,12,01,16,-7.60
2007,01,12,01,17,-7.60
2007,01,12,01,18,-7.60
2007,01,12,01,19,-7.60
2007,01,12,01,20,-7.60
2007,01,12,01,21,-7.60
2007,01,12,01,22,-7.60
2007,01,12,01,23,-7.60
2007,01,12,01,24,-7.60
2007,01,12,01,25,-7.60
2007,01,12,01,26,-7.60
2007,01,12,01,27,-7.60
2007,01,12,01,28,-7.70
2007,01,12,01,29,-7.70
2007,01,12,01,30,-7.70
2007,01,12,01,31,-7.70
2007,01,12,01,32,-7.70
2007,01,12,01,33,-7.70
2007,01,12,01,34,-7.70
2007,01,12,01,35,-7.70
2007,01,12,01,36,-7.70
2007,01,12,01,37,-7.70
2007,01,12,01,38,-7.70
2007,01,12,01,39,-7.70
2007,01,12,01,40,-7.70
2007,01,12,01,41,-7.80
2007,01,12,01,42,-7.80
2007,01,12,01,43,-7.80
2007,01,12,01,44,-7.80
2007,01,12,01,45,-7.80
2007,01,12,01,46,-7.80
2007,01,12,01,47,-7.80
2007,01,12,01,48,-7.90
2007,01,12,01,49,-7.90
2007,01,12,01,50,-7.90
2007,01,12,01,51,-7.90
2007,01,12,01,52,-7.90
2007,01,12,01,53,-8.00
2007,01,12,01,54,-8.00
2007,01,12,01,55,-8.00
2007,01,12,01,56,-8.00
2007,01,12,01,57,-8.00
2007,01,12,01,58,-8.00
2007,01,12,01,59,-8.00
2007,01,12,02,00,-8.00
2007,01,12,02,01,-8.00
2007,01,12,02,02,-7.90
2007,01,12,02,03,-7.90
2007,01,12,02,04,-7.90
2007,01,12,02,05,-7.90
2007,01,12,02,06,-7.80
2007,01,12,02,07,-7.80
2007,01,12,02,08,-7.80
2007,01,12,02,09,-7.80
2007,01,12,02,10,-7.80
2007,01,12,02,11,-7.80
2007,01,12,02,12,-7.80
2007,01,12,02,13,-7.80
2007,01,12,02,14,-7.80
2007,01,12,02,15,-7.80
2007,01,12,02,16,-7.80
2007,01,12,02,17,-7.80
2007,01,12,02,18,-7.80
2007,01,12,02,19,-7.70
2007,01,12,02,20,-7.70
2007,01,12,02,21,-7.70
2007,01,12,02,22,-7.70
2007,01,12,02,23,-7.70
2007,01,12,02,24,-7.70
2007,01,12,02,25,-7.70
2007,01,12,02,26,-7.70
2007,01,12,02,27,-7.80
2007,01,12,02,28,-7.80
2007,01,12,02,29,-7.80
2007,01,12,02,30,-7.80
2007,01,12,02,31,-7.80
2007,01,12,02,32,-7.80
2007,01,12,02,33,-7.90
2007,01,12,02,34,-7.90
2007,01,12,02,35,-7.90
2007,01,12,02,36,-7.90
2007,01,12,02,37,-7.90
2007,01,12,02,38,-8.00
2007,01,12,02,39,-8.00
2007,01,12,02,40,-8.00
2007,01,12,02,41,-8.10
2007,01,12,02,42,-8.10
2007,01,12,02,43,-8.10
2007,01,12,02,44,-8.10
2007,01,12,02,45,-8.00
2007,01,12,02,46,-8.00
2007,01,12,02,47,-8.00
2007,01,12,02,48,-8.00
2007,01,12,02,49,-8.10
2007,01,12,02,50,-8.10
2007,01,12,02,51,-8.10
2007,01,12,02,52,-8.00
2007,01,12,02,53,-8.00
2007,01,12,02,54,-8.00
2007,01,12,02,55,-8.00
2007,01,12,02,56,-8.00
2007,01,12,02,57,-8.00
2007,01,12,02,58,-8.00
2007,01,12,02,59,-8.10
2007,01,12,03,00,-8.10
2007,01,12,03,01,-8.10
2007,01,12,03,02,-8.20
2007,01,12,03,03,-8.20
2007,01,12,03,04,-8.20
2007,01,12,03,05,-8.20
2007,01,12,03,06,-8.30
2007,01,12,03,07,-8.30
2007,01,12,03,08,-8.30
2007,01,12,03,09,-8.30
2007,01,12,03,10,-8.30
2007,01,12,03,11,-8.30
2007,01,12,03,12,-8.30
2007,01,12,03,13,-8.30
2007,01,12,03,14,-8.30
2007,01,12,03,15,-8.30
2007,01,12,03,16,-8.30
2007,01,12,03,17,-8.30
2007,01,12,03,18,-8.30
2007,01,12,03,19,-8.30
2007,01,12,03,20,-8.30
2007,01,12,03,21,-8.30
2007,01,12,03,22,-8.30
2007,01,12,03,23,-8.30
2007,01,12,03,24,-8.30
2007,01,12,03,25,-8.30
2007,01,12,03,26,-8.30
2007,01,12,03,27,-8.30
2007,01,12,03,28,-8.30
2007,01,12,03,29,-8.30
2007,01,12,03,30,-8.30
2007,01,12,03,31,-8.30
2007,01,12,03,32,-8.30
2007,01,12,03,33,-8.20
2007,01,12,03,34,-8.20
2007,01,12,03,35,-8.20
2007,01,12,03,36,-8.20
2007,01,12,03,37,-8.20
2007,01,12,03,38,-8.20
2007,01,12,03,39,-8.20
2007,01,12,03,40,-8.20
2007,01,12,03,41,-8.20
2007,01,12,03,42,-8.30
2007,01,12,03,43,-8.30
2007,01,12,03,44,-8.30
2007,01,12,03,45,-8.30
2007,01,12,03,46,-8.30
2007,01,12,03,47,-8.30
2007,01,12,03,48,-8.30
2007,01,12,03,49,-8.30
2007,01,12,03,50,-8.30
2007,01,12,03,51,-8.30
2007,01,12,03,52,-8.30
2007,01,12,03,53,-8.40
2007,01,12,03,54,-8.40
2007,01,12,03,55,-8.40
2007,01,12,03,56,-8.40
2007,01,12,03,57,-8.40
2007,01,12,03,58,-8.40
2007,01,12,03,59,-8.50
2007,01,12,04,00,-8.40
2007,01,12,04,01,-8.40
2007,01,12,04,02,-8.40
2007,01,12,04,03,-8.40
2007,01,12,04,04,-8.40
2007,01,12,04,05,-8.40
2007,01,12,04,06,-8.40
2007,01,12,04,07,-8.40
2007,01,12,04,08,-8.40
2007,01,12,04,09,-8.50
2007,01,12,04,10,-8.50
2007,01,12,04,11,-8.50
2007,01,12,04,12,-8.60
2007,01,12,04,13,-8.60
2007,01,12,04,14,-8.60
2007,01,12,04,15,-8.60
2007,01,12,04,16,-8.60
2007,01,12,04,17,-8.60
2007,01,12,04,18,-8.60
2007,01,12,04,19,-8.60
2007,01,12,04,20,-8.60
2007,01,12,04,21,-8.60
2007,01,12,04,22,-8.60
2007,01,12,04,23,-8.60
2007,01,12,04,24,-8.60
2007,01,12,04,25,-8.60
2007,01,12,04,26,-8.50
2007,01,12,04,27,-8.50
2007,01,12,04,28,-8.50
2007,01,12,04,29,-8.50
2007,01,12,04,30,-8.50
2007,01,12,04,31,-8.50
2007,01,12,04,32,-8.50
2007,01,12,04,33,-8.50
2007,01,12,04,34,-8.50
2007,01,12,04,35,-8.50
2007,01,12,04,36,-8.60
2007,01,12,04,37,-8.60
2007,01,12,04,38,-8.60
2007,01,12,04,39,-8.60
2007,01,12,04,40,-8.60
2007,01,12,04,41,-8.60
2007,01,12,04,42,-8.60
2007,01,12,04,43,-8.60
2007,01,12,04,44,-8.60
2007,01,12,04,45,-8.60
2007,01,12,04,46,-8.60
2007,01,12,04,47,-8.60
2007,01,12,04,48,-8.70
2007,01,12,04,49,-8.70
2007,01,12,04,50,-8.70
2007,01,12,04,51,-8.70
2007,01,12,04,52,-8.70
2007,01,12,04,53,-8.70
2007,01,12,04,54,-8.70
2007,01,12,04,55,-8.70
2007,01,12,04,56,-8.80
2007,01,12,04,57,-8.80
2007,01,12,04,58,-8.80
2007,01,12,04,59,-8.80
2007,01,12,05,00,-8.80
2007,01,12,05,01,-8.80
2007,01,12,05,02,-8.80
2007,01,12,05,03,-8.80
2007,01,12,05,04,-8.90
2007,01,12,05,05,-8.90
2007,01,12,05,06,-8.90
2007,01,12,05,07,-8.90
2007,01,12,05,08,-8.90
2007,01,12,05,09,-8.80
2007,01,12,05,10,-8.80
2007,01,12,05,11,-8.80
2007,01,12,05,12,-8.80
2007,01,12,05,13,-8.80
2007,01,12,05,14,-8.80
2007,01,12,05,15,-8.80
2007,01,12,05,16,-8.80
2007,01,12,05,17,-8.80
2007,01,12,05,18,-8.80
2007,01,12,05,19,-8.80
2007,01,12,05,20,-8.80
2007,01,12,05,21,-8.80
2007,01,12,05,22,-8.80
2007,01,12,05,23,-8.80
2007,01,12,05,24,-8.80
2007,01,12,05,25,-8.90
2007,01,12,05,26,-8.90
2007,01,12,05,27,-8.90
2007,01,12,05,28,-8.90
2007,01,12,05,29,-8.90
2007,01,12,05,30,-8.90
2007,01,12,05,31,-8.90
2007,01,12,05,32,-8.90
2007,01,12,05,33,-8.90
2007,01,12,05,34,-8.90
2007,01,12,05,35,-8.90
2007,01,12,05,36,-8.90
2007,01,12,05,37,-8.90
2007,01,12,05,38,-8.80
2007,01,12,05,39,-8.80
2007,01,12,05,40,-8.80
2007,01,12,05,41,-8.80
2007,01,12,05,42,-8.80
2007,01,12,05,43,-8.70
2007,01,12,05,44,-8.70
2007,01,12,05,45,-8.70
2007,01,12,05,46,-8.70
2007,01,12,05,47,-8.70
2007,01,12,05,48,-8.70
2007,01,12,05,49,-8.70
2007,01,12,05,50,-8.70
2007,01,12,05,51,-8.70
2007,01,12,05,52,-8.80
2007,01,12,05,53,-8.80
2007,01,12,05,54,-8.80
2007,01,12,05,55,-8.80
2007,01,12,05,56,-8.90
2007,01,12,05,57,-8.90
2007,01,12,05,58,-8.90
2007,01,12,05,59,-8.90
2007,01,12,06,00,-8.90
2007,01,12,06,01,-8.90
2007,01,12,06,02,-8.90
2007,01,12,06,03,-8.90
2007,01,12,06,04,-8.90
2007,01,12,06,05,-8.90
2007,01,12,06,06,-8.90
2007,01,12,06,07,-8.90
2007,01,12,06,08,-8.90
2007,01,12,06,09,-8.90
2007,01,12,06,10,-8.90
2007,01,12,06,11,-8.90
2007,01,12,06,12,-8.90
2007,01,12,06,13,-8.90
2007,01,12,06,14,-8.90
2007,01,12,06,15,-8.90
2007,01,12,06,16,-8.90
2007,01,12,06,17,-8.90
2007,01,12,06,18,-8.90
2007,01,12,06,19,-8.90
2007,01,12,06,20,-8.90
2007,01,12,06,21,-8.90
2007,01,12,06,22,-8.90
2007,01,12,06,23,-8.90
2007,01,12,06,24,-8.90
2007,01,12,06,25,-8.90
2007,01,12,06,26,-8.90
2007,01,12,06,27,-8.90
2007,01,12,06,28,-8.90
2007,01,12,06,29,-8.90
2007,01,12,06,30,-8.90
2007,01,12,06,31,-8.90
2007,01,12,06,32,-8.90
2007,01,12,06,33,-8.90
2007,01,12,06,34,-8.90
2007,01,12,06,35,-8.90
2007,01,12,06,36,-8.90
2007,01,12,06,37,-8.90
2007,01,12,06,38,-8.90
2007,01,12,06,39,-8.90
2007,01,12,06,40,-8.90
2007,01,12,06,41,-8.90
2007,01,12,06,42,-8.90
2007,01,12,06,43,-8.90
2007,01,12,06,44,-8.90
2007,01,12,06,45,-8.90
2007,01,12,06,46,-9.00
2007,01,12,06,47,-9.00
2007,01,12,06,48,-8.90
2007,01,12,06,49,-9.00
2007,01,12,06,50,-8.90
2007,01,12,06,51,-8.90
2007,01,12,06,52,-8.90
2007,01,12,06,53,-8.90
2007,01,12,06,54,-8.90
2007,01,12,06,55,-8.90
2007,01,12,06,56,-8.90
2007,01,12,06,57,-8.90
2007,01,12,06,58,-8.90
2007,01,12,06,59,-8.90
2007,01,12,07,00,-8.90
2007,01,12,07,01,-8.90
2007,01,12,07,02,-8.90
2007,01,12,07,03,-8.90
2007,01,12,07,04,-8.90
2007,01,12,07,05,-8.90
2007,01,12,07,06,-8.90
2007,01,12,07,07,-8.90
2007,01,12,07,08,-8.90
2007,01,12,07,09,-8.90
2007,01,12,07,10,-8.90
2007,01,12,07,11,-8.90
2007,01,12,07,12,-8.90
2007,01,12,07,13,-8.90
2007,01,12,07,14,-8.90
2007,01,12,07,15,-8.90
2007,01,12,07,16,-8.80
2007,01,12,07,17,-8.80
2007,01,12,07,18,-8.80
2007,01,12,07,19,-8.80
2007,01,12,07,20,-8.70
2007,01,12,07,21,-8.70
2007,01,12,07,22,-8.70
2007,01,12,07,23,-8.70
2007,01,12,07,24,-8.70
2007,01,12,07,25,-8.70
2007,01,12,07,26,-8.70
2007,01,12,07,27,-8.70
2007,01,12,07,28,-8.70
2007,01,12,07,29,-8.70
2007,01,12,07,30,-8.70
2007,01,12,07,31,-8.70
2007,01,12,07,32,-8.70
2007,01,12,07,33,-8.70
2007,01,12,07,34,-8.60
2007,01,12,07,35,-8.60
2007,01,12,07,36,-8.50
2007,01,12,07,37,-8.50
2007,01,12,07,38,-8.50
2007,01,12,07,39,-8.50
2007,01,12,07,40,-8.50
2007,01,12,07,41,-8.50
2007,01,12,07,42,-8.50
2007,01,12,07,43,-8.60
2007,01,12,07,44,-8.60
2007,01,12,07,45,-8.60
2007,01,12,07,46,-8.60
2007,01,12,07,47,-8.60
2007,01,12,07,48,-8.50
2007,01,12,07,49,-8.50
2007,01,12,07,50,-8.50
2007,01,12,07,51,-8.50
2007,01,12,07,52,-8.50
2007,01,12,07,53,-8.60
2007,01,12,07,54,-8.60
2007,01,12,07,55,-8.60
2007,01,12,07,56,-8.60
2007,01,12,07,57,-8.60
2007,01,12,07,58,-8.60
2007,01,12,07,59,-8.60
2007,01,12,08,00,-8.60
2007,01,12,08,01,-8.60
2007,01,12,08,02,-8.60
2007,01,12,08,03,-8.60
2007,01,12,08,04,-8.60
2007,01,12,08,05,-8.60
2007,01,12,08,06,-8.60
2007,01,12,08,07,-8.50
2007,01,12,08,08,-8.50
2007,01,12,08,09,-8.50
2007,01,12,08,10,-8.50
2007,01,12,08,11,-8.50
2007,01,12,08,12,-8.40
2007,01,12,08,13,-8.40
2007,01,12,08,14,-8.40
2007,01,12,08,15,-8.40
2007,01,12,08,16,-8.40
2007,01,12,08,17,-8.40
2007,01,12,08,18,-8.40
2007,01,12,08,19,-8.40
2007,01,12,08,20,-8.40
2007,01,12,08,21,-8.40
2007,01,12,08,22,-8.40
2007,01,12,08,23,-8.40
2007,01,12,08,24,-8.40
2007,01,12,08,25,-8.30
2007,01,12,08,26,-8.30
2007,01,12,08,27,-8.30
2007,01,12,08,28,-8.30
2007,01,12,08,29,-8.20
2007,01,12,08,30,-8.20
2007,01,12,08,31,-8.10
2007,01,12,08,32,-8.10
2007,01,12,08,33,-8.10
2007,01,12,08,34,-8.10
2007,01,12,08,35,-8.00
2007,01,12,08,36,-8.00
2007,01,12,08,37,-8.00
2007,01,12,08,38,-8.00
2007,01,12,08,39,-7.90
2007,01,12,08,40,-8.00
2007,01,12,08,41,-7.90
2007,01,12,08,42,-7.90
2007,01,12,08,43,-7.90
2007,01,12,08,44,-8.00
2007,01,12,08,45,-7.90
2007,01,12,08,46,-7.90
2007,01,12,08,47,-7.90
2007,01,12,08,48,-7.90
2007,01,12,08,49,-7.90
2007,01,12,08,50,-7.90
2007,01,12,08,51,-7.90
2007,01,12,08,52,-7.90
2007,01,12,08,53,-7.80
2007,01,12,08,54,-7.80
2007,01,12,08,55,-7.80
2007,01,12,08,56,-7.70
2007,01,12,08,57,-7.70
2007,01,12,08,58,-7.60
2007,01,12,08,59,-7.50
2007,01,12,09,00,-7.50
2007,01,12,09,01,-7.40
2007,01,12,09,02,-7.40
2007,01,12,09,03,-7.30
2007,01,12,09,04,-7.30
2007,01,12,09,05,-7.20
2007,01,12,09,06,-7.20
2007,01,12,09,07,-7.10
2007,01,12,09,08,-7.10
2007,01,12,09,09,-7.00
2007,01,12,09,10,-6.90
2007,01,12,09,11,-6.80
2007,01,12,09,12,-6.80
2007,01,12,09,13,-6.70
2007,01,12,09,14,-6.60
2007,01,12,09,15,-6.60
2007,01,12,09,16,-6.50
2007,01,12,09,17,-6.40
2007,01,12,09,18,-6.30
2007,01,12,09,19,-6.30
2007,01,12,09,20,-6.30
2007,01,12,09,21,-6.30
2007,01,12,09,22,-6.30
2007,01,12,09,23,-6.20
2007,01,12,09,24,-6.20
2007,01,12,09,25,-6.20
2007,01,12,09,26,-6.10
2007,01,12,09,27,-6.10
2007,01,12,09,28,-6.10
2007,01,12,09,29,-6.00
2007,01,12,09,30,-6.00
2007,01,12,09,31,-5.90
2007,01,12,09,32,-5.90
2007,01,12,09,33,-5.90
2007,01,12,09,34,-5.80
2007,01,12,09,35,-5.80
2007,01,12,09,36,-5.70
2007,01,12,09,37,-5.70
2007,01,12,09,38,-5.60
2007,01,12,09,39,-5.60
2007,01,12,09,40,-5.50
2007,01,12,09,41,-5.50
2007,01,12,09,42,-5.40
2007,01,12,09,43,-5.40
2007,01,12,09,44,-5.30
2007,01,12,09,45,-5.30
2007,01,12,09,46,-5.20
2007,01,12,09,47,-5.20
2007,01,12,09,48,-5.10
2007,01,12,09,49,-5.00
2007,01,12,09,50,-5.00
2007,01,12,09,51,-4.90
2007,01,12,09,52,-4.90
2007,01,12,09,53,-4.80
2007,01,12,09,54,-4.80
2007,01,12,09,55,-4.80
2007,01,12,09,56,-4.70
2007,01,12,09,57,-4.70
2007,01,12,09,58,-4.60
2007,01,12,09,59,-4.60
2007,01,12,10,00,-4.50
2007,01,12,10,01,-4.50
2007,01,12,10,02,-4.40
2007,01,12,10,03,-4.30
2007,01,12,10,04,-4.30
2007,01,12,10,05,-4.20
2007,01,12,10,06,-4.10
2007,01,12,10,07,-4.10
2007,01,12,10,08,-4.00
2007,01,12,10,09,-3.90
2007,01,12,10,10,-3.80
2007,01,12,10,11,-3.80
2007,01,12,10,12,-3.70
2007,01,12,10,13,-3.70
2007,01,12,10,14,-3.60
2007,01,12,10,15,-3.50
2007,01,12,10,16,-3.50
2007,01,12,10,17,-3.40
2007,01,12,10,18,-3.40
2007,01,12,10,19,-3.30
2007,01,12,10,20,-3.30
2007,01,12,10,21,-3.20
2007,01,12,10,22,-3.20
2007,01,12,10,23,-3.20
2007,01,12,10,24,-3.10
2007,01,12,10,25,-3.00
2007,01,12,10,26,-3.00
2007,01,12,10,27,-2.90
2007,01,12,10,28,-2.90
2007,01,12,10,29,-2.80
2007,01,12,10,30,-2.80
2007,01,12,10,31,-2.70
2007,01,12,10,32,-2.60
2007,01,12,10,33,-2.60
2007,01,12,10,34,-2.50
2007,01,12,10,35,-2.40
2007,01,12,10,36,-2.40
2007,01,12,10,37,-2.30
2007,01,12,10,38,-2.30
2007,01,12,10,39,-2.20
2007,01,12,10,40,-2.20
2007,01,12,10,41,-2.10
2007,01,12,10,42,-2.10
2007,01,12,10,43,-2.10
2007,01,12,10,44,-2.10
2007,01,12,10,45,-2.00
2007,01,12,10,46,-1.90
2007,01,12,10,47,-1.90
2007,01,12,10,48,-1.80
2007,01,12,10,49,-1.80
2007,01,12,10,50,-1.80
2007,01,12,10,51,-1.70
2007,01,12,10,52,-1.70
2007,01,12,10,53,-1.60
2007,01,12,10,54,-1.50
2007,01,12,10,55,-1.50
2007,01,12,10,56,-1.40
2007,01,12,10,57,-1.40
2007,01,12,10,58,-1.30
2007,01,12,10,59,-1.30
2007,01,12,11,00,-1.30
2007,01,12,11,01,-1.30
2007,01,12,11,02,-1.30
2007,01,12,11,03,-1.30
2007,01,12,11,04,-1.30
2007,01,12,11,05,-1.30
2007,01,12,11,06,-1.30
2007,01,12,11,07,-1.30
2007,01,12,11,08,-1.30
2007,01,12,11,09,-1.30
2007,01,12,11,10,-1.30
2007,01,12,11,11,-1.30
2007,01,12,11,12,-1.30
2007,01,12,11,13,-1.30
2007,01,12,11,14,-1.30
2007,01,12,11,15,-1.30
2007,01,12,11,16,-1.30
2007,01,12,11,17,-1.30
2007,01,12,11,18,-1.30
2007,01,12,11,19,-1.20
2007,01,12,11,20,-1.10
2007,01,12,11,21,-1.10
2007,01,12,11,22,-1.00
2007,01,12,11,23,-0.90
2007,01,12,11,24,-0.90
2007,01,12,11,25,-0.80
2007,01,12,11,26,-0.80
2007,01,12,11,27,-0.80
2007,01,12,11,28,-0.70
2007,01,12,11,29,-0.70
2007,01,12,11,30,-0.70
2007,01,12,11,31,-0.70
2007,01,12,11,32,-0.70
2007,01,12,11,33,-0.70
2007,01,12,11,34,-0.60
2007,01,12,11,35,-0.60
2007,01,12,11,36,-0.60
2007,01,12,11,37,-0.60
2007,01,12,11,38,-0.50
2007,01,12,11,39,-0.50
2007,01,12,11,40,-0.40
2007,01,12,11,41,-0.30
2007,01,12,11,42,-0.30
2007,01,12,11,43,-0.30
2007,01,12,11,44,-0.30
2007,01,12,11,45,-0.30
2007,01,12,11,46,-0.30
2007,01,12,11,47,-0.30
2007,01,12,11,48,-0.20
2007,01,12,11,49,-0.20
2007,01,12,11,50,-0.20
2007,01,12,11,51,-0.20
2007,01,12,11,52,-0.20
2007,01,12,11,53,-0.20
2007,01,12,11,54,-0.20
2007,01,12,11,55,-0.20
2007,01,12,11,56,-0.20
2007,01,12,11,57,-0.20
2007,01,12,11,58,-0.10
2007,01,12,11,59,-0.10
2007,01,12,12,00,-0.10
2007,01,12,12,01,-0.10
2007,01,12,12,02,0.00
2007,01,12,12,03,0.00
2007,01,12,12,04,0.10
2007,01,12,12,05,0.10
2007,01,12,12,06,0.10
2007,01,12,12,07,0.10
2007,01,12,12,08,0.20
2007,01,12,12,09,0.20
2007,01,12,12,10,0.20
2007,01,12,12,11,0.20
2007,01,12,12,12,0.30
2007,01,12,12,13,0.30
2007,01,12,12,14,0.40
2007,01,12,12,15,0.40
2007,01,12,12,16,0.50
2007,01,12,12,17,0.60
2007,01,12,12,18,0.60
2007,01,12,12,19,0.70
2007,01,12,12,20,0.70
2007,01,12,12,21,0.70
2007,01,12,12,22,0.70
2007,01,12,12,23,0.60
2007,01,12,12,24,0.60
2007,01,12,12,25,0.50
2007,01,12,12,26,0.50
2007,01,12,12,27,0.40
2007,01,12,12,28,0.40
2007,01,12,12,29,0.40
2007,01,12,12,30,0.40
2007,01,12,12,31,0.40
2007,01,12,12,32,0.40
2007,01,12,12,33,0.40
2007,01,12,12,34,0.40
2007,01,12,12,35,0.30
2007,01,12,12,36,0.30
2007,01,12,12,37,0.30
2007,01,12,12,38,0.20
2007,01,12,12,39,0.20
2007,01,12,12,40,0.20
2007,01,12,12,41,0.20
2007,01,12,12,42,0.20
2007,01,12,12,43,0.20
2007,01,12,12,44,0.20
2007,01,12,12,45,0.10
2007,01,12,12,46,0.10
2007,01,12,12,47,0.10
2007,01,12,12,48,0.10
2007,01,12,12,49,0.10
2007,01,12,12,50,0.20
2007,01,12,12,51,0.20
2007,01,12,12,52,0.20
2007,01,12,12,53,0.10
2007,01,12,12,54,0.10
2007,01,12,12,55,0.10
2007,01,12,12,56,0.10
2007,01,12,12,57,0.10
2007,01,12,12,58,0.10
2007,01,12,12,59,0.10
2007,01,12,13,00,0.00
2007,01,12,13,01,0.00
2007,01,12,13,02,-0.10
2007,01,12,13,03,-0.10
2007,01,12,13,04,-0.10
2007,01,12,13,05,-0.10
2007,01,12,13,06,-0.10
2007,01,12,13,07,-0.10
2007,01,12,13,08,-0.10
2007,01,12,13,09,-0.10
2007,01,12,13,10,-0.10
2007,01,12,13,11,0.00
2007,01,12,13,12,0.00
2007,01,12,13,13,0.00
2007,01,12,13,14,0.00
2007,01,12,13,15,0.00
2007,01,12,13,16,0.00
2007,01,12,13,17,0.00
2007,01,12,13,18,0.00
2007,01,12,13,19,0.00
2007,01,12,13,20,0.00
2007,01,12,13,21,0.00
2007,01,12,13,22,-0.10
2007,01,12,13,23,-0.10
2007,01,12,13,24,-0.10
2007,01,12,13,25,0.00
2007,01,12,13,26,0.00
2007,01,12,13,27,0.00
2007,01,12,13,28,-0.10
2007,01,12,13,29,-0.10
2007,01,12,13,30,-0.10
2007,01,12,13,31,-0.10
2007,01,12,13,32,-0.10
2007,01,12,13,33,-0.10
2007,01,12,13,34,-0.10
2007,01,12,13,35,-0.10
2007,01,12,13,36,-0.10
2007,01,12,13,37,-0.10
2007,01,12,13,38,0.00
2007,01,12,13,39,0.00
2007,01,12,13,40,0.00
2007,01,12,13,41,0.00
2007,01,12,13,42,0.00
2007,01,12,13,43,0.00
2007,01,12,13,44,0.00
2007,01,12,13,45,0.00
2007,01,12,13,46,0.00
2007,01,12,13,47,0.10
2007,01,12,13,48,0.00
2007,01,12,13,49,0.00
2007,01,12,13,50,0.00
2007,01,12,13,51,0.00
2007,01,12,13,52,-0.10
2007,01,12,13,53,-0.10
2007,01,12,13,54,-0.10
2007,01,12,13,55,-0.10
2007,01,12,13,56,-0.10
2007,01,12,13,57,-0.10
2007,01,12,13,58,0.00
2007,01,12,13,59,-0.10
2007,01,12,14,00,0.00
2007,01,12,14,01,-0.10
2007,01,12,14,02,0.00
2007,01,12,14,03,-0.10
2007,01,12,14,04,0.00
2007,01,12,14,05,0.00
2007,01,12,14,06,0.00
2007,01,12,14,07,0.00
2007,01,12,14,08,0.10
2007,01,12,14,09,0.10
2007,01,12,14,10,0.10
2007,01,12,14,11,0.10
2007,01,12,14,12,0.20
2007,01,12,14,13,0.20
2007,01,12,14,14,0.20
2007,01,12,14,15,0.20
2007,01,12,14,16,0.20
2007,01,12,14,17,0.10
2007,01,12,14,18,0.10
2007,01,12,14,19,0.10
2007,01,12,14,20,0.10
2007,01,12,14,21,0.10
2007,01,12,14,22,0.10
2007,01,12,14,23,0.10
2007,01,12,14,24,0.10
2007,01,12,14,25,0.10
2007,01,12,14,26,0.10
2007,01,12,14,27,0.10
2007,01,12,14,28,0.10
2007,01,12,14,29,0.20
2007,01,12,14,30,0.20
2007,01,12,14,31,0.20
2007,01,12,14,32,0.20
2007,01,12,14,33,0.20
2007,01,12,14,34,0.20
2007,01,12,14,35,0.20
2007,01,12,14,36,0.20
2007,01,12,14,37,0.20
2007,01,12,14,38,0.20
2007,01,12,14,39,0.20
2007,01,12,14,40,0.20
2007,01,12,14,41,0.20
2007,01,12,14,42,0.20
2007,01,12,14,43,0.20
2007,01,12,14,44,0.20
2007,01,12,14,45,0.20
2007,01,12,14,46,0.30
2007,01,12,14,47,0.30
2007,01,12,14,48,0.30
2007,01,12,14,49,0.30
2007,01,12,14,50,0.30
2007,01,12,14,51,0.40
2007,01,12,14,52,0.40
2007,01,12,14,53,0.40
2007,01,12,14,54,0.40
2007,01,12,14,55,0.40
2007,01,12,14,56,0.50
2007,01,12,14,57,0.50
2007,01,12,14,58,0.60
2007,01,12,14,59,0.60
2007,01,12,15,00,0.70
2007,01,12,15,01,0.70
2007,01,12,15,02,0.70
2007,01,12,15,03,0.70
2007,01,12,15,04,0.70
2007,01,12,15,05,0.70
2007,01,12,15,06,0.70
2007,01,12,15,07,0.70
2007,01,12,15,08,0.70
2007,01,12,15,09,0.70
2007,01,12,15,10,0.70
2007,01,12,15,11,0.70
2007,01,12,15,12,0.70
2007,01,12,15,13,0.70
2007,01,12,15,14,0.70
2007,01,12,15,15,0.70
2007,01,12,15,16,0.70
2007,01,12,15,17,0.70
2007,01,12,15,18,0.70
2007,01,12,15,19,0.70
2007,01,12,15,20,0.70
2007,01,12,15,21,0.70
2007,01,12,15,22,0.70
2007,01,12,15,23,0.70
2007,01,12,15,24,0.70
2007,01,12,15,25,0.60
2007,01,12,15,26,0.60
2007,01,12,15,27,0.60
2007,01,12,15,28,0.60
2007,01,12,15,29,0.60
2007,01,12,15,30,0.50
2007,01,12,15,31,0.50
2007,01,12,15,32,0.50
2007,01,12,15,33,0.40
2007,01,12,15,34,0.40
2007,01,12,15,35,0.40
2007,01,12,15,36,0.40
2007,01,12,15,37,0.40
2007,01,12,15,38,0.30
2007,01,12,15,39,0.30
2007,01,12,15,40,0.30
2007,01,12,15,41,0.30
2007,01,12,15,42,0.30
2007,01,12,15,43,0.20
2007,01,12,15,44,0.20
2007,01,12,15,45,0.20
2007,01,12,15,46,0.20
2007,01,12,15,47,0.20
2007,01,12,15,48,0.20
2007,01,12,15,49,0.10
2007,01,12,15,50,0.10
2007,01,12,15,51,0.10
2007,01,12,15,52,0.10
2007,01,12,15,53,0.10
2007,01,12,15,54,0.10
2007,01,12,15,55,0.10
2007,01,12,15,56,0.10
2007,01,12,15,57,0.10
2007,01,12,15,58,0.10
2007,01,12,15,59,0.10
2007,01,12,16,00,0.10
2007,01,12,16,01,0.00
2007,01,12,16,02,0.00
2007,01,12,16,03,0.00
2007,01,12,16,04,0.00
2007,01,12,16,05,0.00
2007,01,12,16,06,0.00
2007,01,12,16,07,0.00
2007,01,12,16,08,0.00
2007,01,12,16,09,0.00
2007,01,12,16,10,-0.10
2007,01,12,16,11,-0.10
2007,01,12,16,12,-0.10
2007,01,12,16,13,-0.10
2007,01,12,16,14,-0.10
2007,01,12,16,15,-0.10
2007,01,12,16,16,-0.20
2007,01,12,16,17,-0.20
2007,01,12,16,18,-0.20
2007,01,12,16,19,-0.30
2007,01,12,16,20,-0.30
2007,01,12,16,21,-0.30
2007,01,12,16,22,-0.30
2007,01,12,16,23,-0.30
2007,01,12,16,24,-0.40
2007,01,12,16,25,-0.40
2007,01,12,16,26,-0.40
2007,01,12,16,27,-0.40
2007,01,12,16,28,-0.40
2007,01,12,16,29,-0.40
2007,01,12,16,30,-0.50
2007,01,12,16,31,-0.50
2007,01,12,16,32,-0.50
2007,01,12,16,33,-0.60
2007,01,12,16,34,-0.60
2007,01,12,16,35,-0.60
2007,01,12,16,36,-0.60
2007,01,12,16,37,-0.60
2007,01,12,16,38,-0.60
2007,01,12,16,39,-0.60
2007,01,12,16,40,-0.60
2007,01,12,16,41,-0.60
2007,01,12,16,42,-0.60
2007,01,12,16,43,-0.60
2007,01,12,16,44,-0.70
2007,01,12,16,45,-0.70
2007,01,12,16,46,-0.70
2007,01,12,16,47,-0.70
2007,01,12,16,48,-0.80
2007,01,12,16,49,-0.80
2007,01,12,16,50,-0.80
2007,01,12,16,51,-0.90
2007,01,12,16,52,-0.90
2007,01,12,16,53,-1.00
2007,01,12,16,54,-1.00
2007,01,12,16,55,-1.10
2007,01,12,16,56,-1.10
2007,01,12,16,57,-1.20
2007,01,12,16,58,-1.20
2007,01,12,16,59,-1.30
2007,01,12,17,00,-1.30
2007,01,12,17,01,-1.40
2007,01,12,17,02,-1.40
2007,01,12,17,03,-1.40
2007,01,12,17,04,-1.50
2007,01,12,17,05,-1.50
2007,01,12,17,06,-1.50
2007,01,12,17,07,-1.60
2007,01,12,17,08,-1.60
2007,01,12,17,09,-1.60
2007,01,12,17,10,-1.70
2007,01,12,17,11,-1.70
2007,01,12,17,12,-1.70
2007,01,12,17,13,-1.70
2007,01,12,17,14,-1.70
2007,01,12,17,15,-1.70
2007,01,12,17,16,-1.70
2007,01,12,17,17,-1.70
2007,01,12,17,18,-1.80
2007,01,12,17,19,-1.80
2007,01,12,17,20,-1.80
2007,01,12,17,21,-1.80
2007,01,12,17,22,-1.80
2007,01,12,17,23,-1.90
2007,01,12,17,24,-1.90
2007,01,12,17,25,-1.90
2007,01,12,17,26,-1.90
2007,01,12,17,27,-2.00
2007,01,12,17,28,-2.00